Location: Unspecified
(0.0000°N, 0.0000°E)
Time: 13:12:01
(UTC+00:00)

STARLINK-1167 - Visible Passes

Search period start: 20 July 2025 00:00
Search period end: 30 July 2025 00:00
Orbit: 546 x 548 km, 53.1° (Epoch: 20 July)

Date Brightness Start Highest point End Pass type
(mag) Time Alt. Az. Time Alt. Az. Time Alt. Az.
20 Jul 4.6 18:30:25 10° S 18:33:51 25° SE 18:37:16 10° ENE visible
20 Jul 6.5 20:10:36 10° W 20:13:09 16° NW 20:15:42 10° NNW visible
21 Jul 7.1 20:06:22 10° WNW 20:06:52 10° NW 20:07:22 10° NW visible
25 Jul 7.1 04:25:08 10° NE 04:26:04 11° NE 04:26:59 10° ENE visible
26 Jul 6.6 04:17:09 10° NNE 04:19:48 17° NE 04:22:27 10° E visible
27 Jul 5.8 04:10:06 10° N 04:13:32 25° NE 04:16:57 10° ESE visible
28 Jul 4.9 04:07:12 39° NE 04:07:15 39° NE 04:11:07 10° SE visible
29 Jul 6.3 04:04:43 12° SE 04:04:43 12° SE 04:05:03 10° SE visible
